Satellite: NOAA-17
Catalog number: 27453
Epoch time:      11334.87805417
Element set:    0506
Inclination:      098.3604 deg
RA of node:       006.7713 deg
Eccentricity:    0.0012202
Arg of perigee:   025.8159 deg
Mean anomaly:     334.3590 deg
Mean motion:   14.24357739 rev/day
Decay rate:       1.35e-06 rev/day^2
Epoch rev:           49038
Checksum:              298

Satellite: NOAA-18
Catalog number: 28654
Epoch time:      11334.89275669
Element set:    0983
Inclination:      099.0200 deg
RA of node:       286.6280 deg
Eccentricity:    0.0014463
Arg of perigee:   358.9961 deg
Mean anomaly:     001.1187 deg
Mean motion:   14.11562566 rev/day
Decay rate:       1.00e-06 rev/day^2
Epoch rev:           33644
Checksum:              315

Satellite: NOAA-19
Catalog number: 33591
Epoch time:      11334.85603547
Element set:    0172
Inclination:      098.8448 deg
RA of node:       272.3333 deg
Eccentricity:    0.0013401
Arg of perigee:   223.3063 deg
Mean anomaly:     136.7047 deg
Mean motion:   14.11252919 rev/day
Decay rate:        9.7e-07 rev/day^2
Epoch rev:           14489
Checksum:              299

/EX
SB KEPS @ AMSAT  $ORB11335.M
Orbital Elements  11335.MISC

HR AMSAT ORBITAL ELEMENTS FOR MANNED AND MISCELLANEOUS SATELLITES
FROM WA5QGD FORT WORTH,TX December 1, 2011
Send Subscribe/unsubscribe to KEPS at http://www.amsat.org/mailman/listinfo/kep
BID: ORB11335.M
TO ALL RADIO AMATEURS BT

Satellite: HUBBLE
Catalog number: 20580
Epoch time:      11335.28238065
Element set:     898
Inclination:      028.4708 deg
RA of node:       004.6347 deg
Eccentricity:    0.0003460
Arg of perigee:   106.4077 deg
Mean anomaly:     253.7047 deg
Mean motion:   15.01910365 rev/day
Decay rate:      3.275e-05 rev/day^2
Epoch rev:           98479
Checksum:              299

Satellite: ISS
Catalog number: 25544
Epoch time:      11335.88173611
Element set:     538
Inclination:      051.6411 deg
RA of node:       036.9583 deg
Eccentricity:    0.0028440
Arg of perigee:   114.3479 deg
Mean anomaly:     229.0205 deg
Mean motion:   15.58420005 rev/day
Decay rate:     2.3559e-04 rev/day^2
Epoch rev:           74708
Checksum:              290

Satellite: CO-58
Catalog number: 28895
Epoch time:      11334.30753915
Element set:    0037
Inclination:      097.9414 deg
RA of node:       204.0503 deg
Eccentricity:    0.0018877
Arg of perigee:   061.2110 deg
Mean anomaly:     299.0964 deg
Mean motion:   14.60346662 rev/day
Decay rate:      1.276e-05 rev/day^2
Epoch rev:           32448
Checksum:              313

Satellite: FALCON
Catalog number: 30776
Epoch time:      11334.61474652
Element set:     227
Inclination:      035.4327 deg
RA of node:       054.3846 deg
Eccentricity:    0.0001922
Arg of perigee:   072.0129 deg
Mean anomaly:     288.0797 deg
Mean motion:   15.05915349 rev/day
Decay rate:      7.147e-05 rev/day^2
Epoch rev:           26013
Checksum:              292

Satellite: MAST
Catalog number: 31126
Epoch time:      11335.62590373
Element set:     322
Inclination:      097.8845 deg
RA of node:       353.2939 deg
Eccentricity:    0.0094624
Arg of perigee:   010.0211 deg
Mean anomaly:     350.2845 deg
Mean motion:   14.53929638 rev/day
Decay rate:       9.88e-06 rev/day^2
Epoch rev:           24541
Checksum:              300

Satellite: CAPE1
Catalog number: 31130
Epoch time:      11335.55944789
Element set:     333
Inclination:      097.8901 deg
RA of node:       349.7765 deg
Eccentricity:    0.0102702
Arg of perigee:   021.9664 deg
Mean anomaly:     338.5863 deg
Mean motion:   14.52628869 rev/day
Decay rate:      1.385e-05 rev/day^2
Epoch rev:           24493
Checksum:              331

Satellite: COMPASS
Catalog number: 32787
Epoch time:      11334.43256286
Element set:    0158
Inclination:      097.8296 deg
RA of node:       035.0189 deg
Eccentricity:    0.0015512
Arg of perigee:   358.2352 deg
Mean anomaly:     001.8788 deg
Mean motion:   14.83129007 rev/day
Decay rate:      3.542e-05 rev/day^2
Epoch rev:           19419
Checksum:              311

Satellite: AAUSAT2
Catalog number: 32788
Epoch time:      11335.65506642
Element set:     150
Inclination:      097.8307 deg
RA of node:       036.4988 deg
Eccentricity:    0.0014963
Arg of perigee:   355.3610 deg
Mean anomaly:     004.7462 deg
Mean motion:   14.83383141 rev/day
Decay rate:      3.921e-05 rev/day^2
Epoch rev:           19439
Checksum:              309

Satellite: DO-64
Catalog number: 32789
Epoch time:      11334.71920243
Element set:     164
Inclination:      097.8387 deg
RA of node:       036.9485 deg
Eccentricity:    0.0015007
Arg of perigee:   354.6258 deg
Mean anomaly:     005.4854 deg
Mean motion:   14.84278754 rev/day
Decay rate:      5.901e-05 rev/day^2
Epoch rev:           19427
Checksum:              336

Satellite: CO-66
Catalog number: 32791
Epoch time:      11335.70295788
Element set:     153
Inclination:      097.8297 deg
RA of node:       036.1384 deg
Eccentricity:    0.0015871
Arg of perigee:   353.6678 deg
Mean anomaly:     006.4312 deg
Mean motion:   14.82709348 rev/day
Decay rate:      3.231e-05 rev/day^2
Epoch rev:           19432
Checksum:              328

